Location: Sternwarte ZA, Rosenfeld-Brittheim
(48.2889°N, 8.6789°E)
Time: 21:30:53
(UTC+02:00)

ISS - Pass Details

Date: 25 May 2017
Orbit: 402 x 409 km, 51.6° (Epoch: 25 May)

Event Time Altitude Azimuth Distance (km) Brightness Sun altitude
Rises 22:35:04 0° 232° (SW) 2,325 0.1 -11.2°
Reaches altitude 10° 22:37:10 10° 228° (SW) 1,466 -1.0 -11.4°
Maximum altitude 22:40:23 53° 151° (SSE) 509 -3.7 -11.7°
Drops below altitude 10° 22:43:36 10° 73° (ENE) 1,470 -1.2 -12.1°
Sets 22:45:43 0° 69° (ENE) 2,332 -0.1 -12.3°
